contact:dominique.lefevre@mio.osupytheas.fr, maurice.libes@osupytheas.fr, didier.mallarino@osupytheas.fr
Project:EMSO http://www.emso-fr.org/EMSO-France
Depth: 2436.0 m
Title:EMSO Ligure Ouest : Data MII capteur MICROCAT
DateTime_Computer,Latitude,Longitude,Temperature,Conductivity,Pressure,DateTime_Instrument
DateTime_Computer,Latitude,Longitude,degC,S m-1,dbar,DateTime_Instrument
2022-03-19T00:01:44Z,42.805,6.029,13.3012,4.60067,2470.39,2022-3-19T02:03:20Z
2022-03-19T00:04:47Z,42.805,6.029,13.3013,4.60099,2470.366,2022-3-19T02:06:23Z
2022-03-19T00:07:50Z,42.805,6.029,13.3026,4.60079,2470.39,2022-3-19T02:09:27Z
2022-03-19T00:10:53Z,42.805,6.029,13.3024,4.60103,2470.404,2022-3-19T02:12:30Z
2022-03-19T00:13:57Z,42.805,6.029,13.3020,4.60081,2470.404,2022-3-19T02:15:33Z
2022-03-19T00:17:00Z,42.805,6.029,13.3019,4.60086,2470.38,2022-3-19T02:18:36Z
2022-03-19T00:20:03Z,42.805,6.029,13.3011,4.60074,2470.404,2022-3-19T02:21:39Z
2022-03-19T00:23:06Z,42.805,6.029,13.3020,4.60077,2470.357,2022-3-19T02:24:42Z
2022-03-19T00:26:09Z,42.805,6.029,13.3015,4.60090,2470.39,2022-3-19T02:27:45Z
2022-03-19T00:29:12Z,42.805,6.029,13.3017,4.60072,2470.39,2022-3-19T02:30:48Z
2022-03-19T00:32:15Z,42.805,6.029,13.3018,4.60081,2470.404,2022-3-19T02:33:52Z
2022-03-19T00:35:18Z,42.805,6.029,13.3026,4.60092,2470.343,2022-3-19T02:36:55Z
2022-03-19T00:38:22Z,42.805,6.029,13.3014,4.60081,2470.39,2022-3-19T02:39:58Z
2022-03-19T00:41:25Z,42.805,6.029,13.3008,4.60096,2470.366,2022-3-19T02:43:01Z
2022-03-19T00:44:28Z,42.805,6.029,13.3010,4.60079,2470.357,2022-3-19T02:46:04Z
2022-03-19T00:47:31Z,42.805,6.029,13.3012,4.60085,2470.38,2022-3-19T02:49:07Z
2022-03-19T00:50:34Z,42.805,6.029,13.3016,4.60065,2470.366,2022-3-19T02:52:10Z
2022-03-19T00:53:37Z,42.805,6.029,13.3016,4.60079,2470.366,2022-3-19T02:55:13Z
2022-03-19T00:56:40Z,42.805,6.029,13.3013,4.60078,2470.404,2022-3-19T02:58:17Z
2022-03-19T00:59:43Z,42.805,6.029,13.3011,4.60081,2470.404,2022-3-19T03:01:20Z
2022-03-19T01:02:47Z,42.805,6.029,13.3022,4.60083,2470.39,2022-3-19T03:04:23Z
2022-03-19T01:05:50Z,42.805,6.029,13.3015,4.60086,2470.343,2022-3-19T03:07:26Z
2022-03-19T01:08:53Z,42.805,6.029,13.3017,4.60094,2470.38,2022-3-19T03:10:29Z
2022-03-19T01:11:56Z,42.805,6.029,13.3011,4.60066,2470.38,2022-3-19T03:13:32Z
2022-03-19T01:14:59Z,42.805,6.029,13.3018,4.60098,2470.366,2022-3-19T03:16:35Z
2022-03-19T01:18:02Z,42.805,6.029,13.3024,4.60088,2470.357,2022-3-19T03:19:38Z
2022-03-19T01:21:05Z,42.805,6.029,13.3030,4.60092,2470.366,2022-3-19T03:22:41Z
2022-03-19T01:24:08Z,42.805,6.029,13.3034,4.60077,2470.366,2022-3-19T03:25:45Z
2022-03-19T01:27:12Z,42.805,6.029,13.3029,4.60086,2470.343,2022-3-19T03:28:48Z
2022-03-19T01:30:15Z,42.805,6.029,13.3021,4.60109,2470.366,2022-3-19T03:31:51Z
2022-03-19T01:33:18Z,42.805,6.029,13.3029,4.60127,2470.366,2022-3-19T03:34:54Z
2022-03-19T01:36:21Z,42.805,6.029,13.3033,4.60094,2470.39,2022-3-19T03:37:57Z
2022-03-19T01:39:24Z,42.805,6.029,13.3014,4.60092,2470.366,2022-3-19T03:41:00Z
2022-03-19T01:42:27Z,42.805,6.029,13.3021,4.60087,2470.32,2022-3-19T03:44:03Z
2022-03-19T01:45:30Z,42.805,6.029,13.3013,4.60092,2470.357,2022-3-19T03:47:06Z
2022-03-19T01:48:33Z,42.805,6.029,13.3014,4.60084,2470.404,2022-3-19T03:50:10Z
2022-03-19T01:51:36Z,42.805,6.029,13.3015,4.60091,2470.357,2022-3-19T03:53:13Z
2022-03-19T01:54:40Z,42.805,6.029,13.3025,4.60124,2470.366,2022-3-19T03:56:16Z
2022-03-19T01:57:43Z,42.805,6.029,13.3032,4.60127,2470.343,2022-3-19T03:59:19Z
2022-03-19T02:00:46Z,42.805,6.029,13.3025,4.60078,2470.357,2022-3-19T04:02:22Z
2022-03-19T02:03:49Z,42.805,6.029,13.3016,4.60079,2470.32,2022-3-19T04:05:25Z
2022-03-19T02:06:52Z,42.805,6.029,13.3019,4.60119,2470.404,2022-3-19T04:08:28Z
2022-03-19T02:09:55Z,42.805,6.029,13.3024,4.60087,2470.366,2022-3-19T04:11:31Z
2022-03-19T02:12:58Z,42.805,6.029,13.3029,4.60094,2470.343,2022-3-19T04:14:34Z
2022-03-19T02:16:01Z,42.805,6.029,13.3021,4.60126,2470.366,2022-3-19T04:17:38Z
2022-03-19T02:19:05Z,42.805,6.029,13.3015,4.60097,2470.343,2022-3-19T04:20:41Z
2022-03-19T02:22:08Z,42.805,6.029,13.3015,4.60090,2470.366,2022-3-19T04:23:44Z
2022-03-19T02:25:11Z,42.805,6.029,13.3015,4.60109,2470.366,2022-3-19T04:26:47Z
2022-03-19T02:28:14Z,42.805,6.029,13.3027,4.60121,2470.38,2022-3-19T04:29:50Z
2022-03-19T02:31:17Z,42.805,6.029,13.3031,4.60122,2470.343,2022-3-19T04:32:53Z
2022-03-19T02:34:20Z,42.805,6.029,13.3031,4.60118,2470.38,2022-3-19T04:35:56Z
2022-03-19T02:37:23Z,42.805,6.029,13.3015,4.60075,2470.366,2022-3-19T04:38:59Z
2022-03-19T02:40:26Z,42.805,6.029,13.3029,4.60104,2470.343,2022-3-19T04:42:03Z
2022-03-19T02:43:30Z,42.805,6.029,13.3029,4.60123,2470.357,2022-3-19T04:45:06Z
2022-03-19T02:46:33Z,42.805,6.029,13.3025,4.60079,2470.366,2022-3-19T04:48:09Z
2022-03-19T02:49:36Z,42.805,6.029,13.3063,4.60090,2470.38,2022-3-19T04:51:12Z
2022-03-19T02:52:39Z,42.805,6.029,13.3034,4.60095,2470.343,2022-3-19T04:54:15Z
2022-03-19T02:55:42Z,42.805,6.029,13.3030,4.60115,2470.33,2022-3-19T04:57:18Z
2022-03-19T02:58:45Z,42.805,6.029,13.3020,4.60118,2470.38,2022-3-19T05:00:21Z
2022-03-19T03:01:48Z,42.805,6.029,13.3038,4.60128,2470.38,2022-3-19T05:03:24Z
2022-03-19T03:04:51Z,42.805,6.029,13.3025,4.60110,2470.39,2022-3-19T05:06:28Z
2022-03-19T03:07:54Z,42.805,6.029,13.3028,4.60114,2470.404,2022-3-19T05:09:31Z
2022-03-19T03:10:58Z,42.805,6.029,13.3028,4.60157,2470.38,2022-3-19T05:12:34Z
2022-03-19T03:14:01Z,42.805,6.029,13.3036,4.60105,2470.357,2022-3-19T05:15:37Z
2022-03-19T03:17:04Z,42.805,6.029,13.3026,4.60101,2470.38,2022-3-19T05:18:40Z
2022-03-19T03:20:07Z,42.805,6.029,13.3020,4.60113,2470.343,2022-3-19T05:21:43Z
2022-03-19T03:23:10Z,42.805,6.029,13.3032,4.60087,2470.404,2022-3-19T05:24:46Z
2022-03-19T03:26:13Z,42.805,6.029,13.3016,4.60136,2470.366,2022-3-19T05:27:49Z
2022-03-19T03:29:16Z,42.805,6.029,13.3039,4.60117,2470.357,2022-3-19T05:30:52Z
2022-03-19T03:32:19Z,42.805,6.029,13.3026,4.60127,2470.38,2022-3-19T05:33:56Z
2022-03-19T03:35:23Z,42.805,6.029,13.3026,4.60140,2470.38,2022-3-19T05:36:59Z
2022-03-19T03:38:26Z,42.805,6.029,13.3041,4.60121,2470.413,2022-3-19T05:40:02Z
2022-03-19T03:41:29Z,42.805,6.029,13.3031,4.60084,2470.357,2022-3-19T05:43:05Z
2022-03-19T03:44:32Z,42.805,6.029,13.3030,4.60122,2470.366,2022-3-19T05:46:08Z
2022-03-19T03:47:35Z,42.805,6.029,13.3024,4.60110,2470.39,2022-3-19T05:49:11Z
2022-03-19T03:50:38Z,42.805,6.029,13.3023,4.60104,2470.404,2022-3-19T05:52:14Z
2022-03-19T03:53:41Z,42.805,6.029,13.3050,4.60089,2470.39,2022-3-19T05:55:17Z
2022-03-19T03:56:44Z,42.805,6.029,13.3043,4.60116,2470.38,2022-3-19T05:58:21Z
2022-03-19T03:59:48Z,42.805,6.029,13.3020,4.60101,2470.404,2022-3-19T06:01:24Z
2022-03-19T04:02:51Z,42.805,6.029,13.3043,4.60122,2470.427,2022-3-19T06:04:27Z
2022-03-19T04:05:54Z,42.805,6.029,13.3039,4.60077,2470.38,2022-3-19T06:07:30Z
2022-03-19T04:08:57Z,42.805,6.029,13.3029,4.60101,2470.413,2022-3-19T06:10:33Z
2022-03-19T04:12:00Z,42.805,6.029,13.3034,4.60076,2470.437,2022-3-19T06:13:36Z
2022-03-19T04:15:03Z,42.805,6.029,13.3034,4.60079,2470.427,2022-3-19T06:16:39Z
2022-03-19T04:18:06Z,42.805,6.029,13.3030,4.60103,2470.39,2022-3-19T06:19:42Z
2022-03-19T04:21:09Z,42.805,6.029,13.3039,4.60080,2470.404,2022-3-19T06:22:46Z
2022-03-19T04:24:13Z,42.805,6.029,13.3038,4.60097,2470.413,2022-3-19T06:25:49Z
2022-03-19T04:27:16Z,42.805,6.029,13.3028,4.60087,2470.45,2022-3-19T06:28:52Z
2022-03-19T04:30:19Z,42.805,6.029,13.3026,4.60070,2470.413,2022-3-19T06:31:55Z
2022-03-19T04:33:22Z,42.805,6.029,13.3028,4.60064,2470.427,2022-3-19T06:34:58Z
2022-03-19T04:36:25Z,42.805,6.029,13.3042,4.60055,2470.45,2022-3-19T06:38:01Z
2022-03-19T04:39:28Z,42.805,6.029,13.3029,4.60055,2470.437,2022-3-19T06:41:04Z
2022-03-19T04:42:31Z,42.805,6.029,13.3031,4.60061,2470.437,2022-3-19T06:44:07Z
2022-03-19T04:45:34Z,42.805,6.029,13.3032,4.60066,2470.437,2022-3-19T06:47:11Z
2022-03-19T04:48:37Z,42.805,6.029,13.3029,4.60085,2470.45,2022-3-19T06:50:14Z
2022-03-19T04:51:41Z,42.805,6.029,13.3024,4.60089,2470.437,2022-3-19T06:53:17Z
2022-03-19T04:54:44Z,42.805,6.029,13.3029,4.60060,2470.437,2022-3-19T06:56:20Z
2022-03-19T04:57:47Z,42.805,6.029,13.3029,4.60070,2470.474,2022-3-19T06:59:23Z
2022-03-19T05:00:50Z,42.805,6.029,13.3031,4.60085,2470.474,2022-3-19T07:02:26Z
2022-03-19T05:03:53Z,42.805,6.029,13.3032,4.60060,2470.483,2022-3-19T07:05:29Z
2022-03-19T05:06:56Z,42.805,6.029,13.3028,4.60087,2470.52,2022-3-19T07:08:32Z
2022-03-19T05:09:59Z,42.805,6.029,13.3033,4.60057,2470.483,2022-3-19T07:11:35Z
2022-03-19T05:13:02Z,42.805,6.029,13.3032,4.60097,2470.497,2022-3-19T07:14:39Z
2022-03-19T05:16:06Z,42.805,6.029,13.3031,4.60071,2470.52,2022-3-19T07:17:42Z
2022-03-19T05:19:09Z,42.805,6.029,13.3038,4.60098,2470.52,2022-3-19T07:20:45Z
2022-03-19T05:22:12Z,42.805,6.029,13.3026,4.60066,2470.507,2022-3-19T07:23:48Z
2022-03-19T05:25:15Z,42.805,6.029,13.3026,4.60068,2470.507,2022-3-19T07:26:51Z
2022-03-19T05:28:18Z,42.805,6.029,13.3022,4.60073,2470.52,2022-3-19T07:29:54Z
2022-03-19T05:31:21Z,42.805,6.029,13.3024,4.60081,2470.483,2022-3-19T07:32:57Z
2022-03-19T05:34:24Z,42.805,6.029,13.3018,4.60063,2470.507,2022-3-19T07:36:00Z
2022-03-19T05:37:27Z,42.805,6.029,13.3014,4.60075,2470.507,2022-3-19T07:39:04Z
2022-03-19T05:40:31Z,42.805,6.029,13.3021,4.60086,2470.507,2022-3-19T07:42:07Z
2022-03-19T05:43:34Z,42.805,6.029,13.3022,4.60081,2470.53,2022-3-19T07:45:10Z
2022-03-19T05:46:37Z,42.805,6.029,13.3020,4.60079,2470.553,2022-3-19T07:48:13Z
2022-03-19T05:49:40Z,42.805,6.029,13.3015,4.60079,2470.544,2022-3-19T07:51:16Z
2022-03-19T05:52:43Z,42.805,6.029,13.3024,4.60080,2470.544,2022-3-19T07:54:19Z
2022-03-19T05:55:46Z,42.805,6.029,13.3014,4.60070,2470.567,2022-3-19T07:57:22Z
2022-03-19T05:58:49Z,42.805,6.029,13.3011,4.60079,2470.577,2022-3-19T08:00:25Z
2022-03-19T06:01:52Z,42.805,6.029,13.3015,4.60088,2470.614,2022-3-19T08:03:29Z
2022-03-19T06:04:55Z,42.805,6.029,13.3014,4.60076,2470.614,2022-3-19T08:06:32Z
2022-03-19T06:07:59Z,42.805,6.029,13.3011,4.60051,2470.591,2022-3-19T08:09:35Z
2022-03-19T06:11:02Z,42.805,6.029,13.3018,4.60072,2470.614,2022-3-19T08:12:38Z
2022-03-19T06:14:05Z,42.805,6.029,13.3012,4.60074,2470.553,2022-3-19T08:15:41Z
2022-03-19T06:17:08Z,42.805,6.029,13.3015,4.60077,2470.591,2022-3-19T08:18:44Z
2022-03-19T06:20:11Z,42.805,6.029,13.3013,4.60056,2470.591,2022-3-19T08:21:47Z
2022-03-19T06:23:14Z,42.805,6.029,13.3017,4.60087,2470.614,2022-3-19T08:24:50Z
2022-03-19T06:26:17Z,42.805,6.029,13.3016,4.60079,2470.614,2022-3-19T08:27:54Z
2022-03-19T06:29:20Z,42.805,6.029,13.3018,4.60077,2470.6,2022-3-19T08:30:57Z
2022-03-19T06:32:24Z,42.805,6.029,13.3015,4.60079,2470.591,2022-3-19T08:34:00Z
2022-03-19T06:35:27Z,42.805,6.029,13.3014,4.60088,2470.614,2022-3-19T08:37:03Z
2022-03-19T06:38:30Z,42.805,6.029,13.3015,4.60072,2470.6,2022-3-19T08:40:06Z
2022-03-19T06:41:33Z,42.805,6.029,13.3015,4.60082,2470.6,2022-3-19T08:43:09Z
2022-03-19T06:44:36Z,42.805,6.029,13.3016,4.60067,2470.624,2022-3-19T08:46:12Z
2022-03-19T06:47:39Z,42.805,6.029,13.3019,4.60070,2470.6,2022-3-19T08:49:15Z
2022-03-19T06:50:42Z,42.805,6.029,13.3023,4.60072,2470.577,2022-3-19T08:52:18Z
2022-03-19T06:53:45Z,42.805,6.029,13.3019,4.60074,2470.6,2022-3-19T08:55:22Z
2022-03-19T06:56:49Z,42.805,6.029,13.3018,4.60078,2470.624,2022-3-19T08:58:25Z
2022-03-19T06:59:52Z,42.805,6.029,13.3015,4.60073,2470.614,2022-3-19T09:01:28Z
2022-03-19T07:02:55Z,42.805,6.029,13.3015,4.60069,2470.637,2022-3-19T09:04:31Z
2022-03-19T07:05:58Z,42.805,6.029,13.3011,4.60078,2470.637,2022-3-19T09:07:34Z
2022-03-19T07:09:01Z,42.805,6.029,13.3024,4.60063,2470.646,2022-3-19T09:10:37Z
2022-03-19T07:12:04Z,42.805,6.029,13.3021,4.60074,2470.637,2022-3-19T09:13:40Z
2022-03-19T07:15:07Z,42.805,6.029,13.3011,4.60079,2470.637,2022-3-19T09:16:43Z
2022-03-19T07:18:10Z,42.805,6.029,13.3021,4.60070,2470.646,2022-3-19T09:19:47Z
2022-03-19T07:21:14Z,42.805,6.029,13.3013,4.60064,2470.646,2022-3-19T09:22:50Z
2022-03-19T07:24:17Z,42.805,6.029,13.3019,4.60074,2470.646,2022-3-19T09:25:53Z
2022-03-19T07:27:20Z,42.805,6.029,13.3022,4.60076,2470.637,2022-3-19T09:28:56Z
2022-03-19T07:30:23Z,42.805,6.029,13.3017,4.60094,2470.624,2022-3-19T09:31:59Z
2022-03-19T07:33:26Z,42.805,6.029,13.3018,4.60082,2470.624,2022-3-19T09:35:02Z
2022-03-19T07:36:29Z,42.805,6.029,13.3031,4.60081,2470.661,2022-3-19T09:38:05Z
2022-03-19T07:39:32Z,42.805,6.029,13.3019,4.60088,2470.646,2022-3-19T09:41:08Z
2022-03-19T07:42:35Z,42.805,6.029,13.3018,4.60072,2470.637,2022-3-19T09:44:12Z
2022-03-19T07:45:38Z,42.805,6.029,13.3021,4.60074,2470.637,2022-3-19T09:47:15Z
2022-03-19T07:48:42Z,42.805,6.029,13.3017,4.60080,2470.624,2022-3-19T09:50:18Z
2022-03-19T07:51:45Z,42.805,6.029,13.3021,4.60092,2470.67,2022-3-19T09:53:21Z
2022-03-19T07:54:48Z,42.805,6.029,13.3016,4.60078,2470.646,2022-3-19T09:56:24Z
2022-03-19T07:57:51Z,42.805,6.029,13.3015,4.60067,2470.624,2022-3-19T09:59:27Z
2022-03-19T08:00:54Z,42.805,6.029,13.3011,4.60067,2470.661,2022-3-19T10:02:30Z
2022-03-19T08:03:57Z,42.805,6.029,13.3020,4.60061,2470.646,2022-3-19T10:05:33Z
2022-03-19T08:07:00Z,42.805,6.029,13.3019,4.60061,2470.661,2022-3-19T10:08:37Z
2022-03-19T08:10:04Z,42.805,6.029,13.3016,4.60070,2470.624,2022-3-19T10:11:40Z
2022-03-19T08:13:07Z,42.805,6.029,13.3009,4.60069,2470.624,2022-3-19T10:14:43Z
2022-03-19T08:16:10Z,42.805,6.029,13.3018,4.60069,2470.661,2022-3-19T10:17:46Z
2022-03-19T08:19:13Z,42.805,6.029,13.3024,4.60078,2470.646,2022-3-19T10:20:49Z
2022-03-19T08:22:16Z,42.805,6.029,13.3022,4.60068,2470.646,2022-3-19T10:23:52Z
2022-03-19T08:25:19Z,42.805,6.029,13.3014,4.60056,2470.646,2022-3-19T10:26:55Z
2022-03-19T08:28:22Z,42.805,6.029,13.3023,4.60069,2470.661,2022-3-19T10:29:58Z
2022-03-19T08:31:25Z,42.805,6.029,13.3021,4.60079,2470.624,2022-3-19T10:33:02Z
2022-03-19T08:34:28Z,42.805,6.029,13.3016,4.60086,2470.637,2022-3-19T10:36:05Z
2022-03-19T08:37:32Z,42.805,6.029,13.3015,4.60058,2470.646,2022-3-19T10:39:08Z
2022-03-19T08:40:35Z,42.805,6.029,13.3024,4.60069,2470.624,2022-3-19T10:42:11Z
2022-03-19T08:43:38Z,42.805,6.029,13.3031,4.60104,2470.637,2022-3-19T10:45:14Z
2022-03-19T08:46:41Z,42.805,6.029,13.3016,4.60070,2470.637,2022-3-19T10:48:17Z
2022-03-19T08:49:44Z,42.805,6.029,13.3013,4.60069,2470.624,2022-3-19T10:51:20Z
2022-03-19T08:52:47Z,42.805,6.029,13.3015,4.60067,2470.614,2022-3-19T10:54:23Z
2022-03-19T08:55:50Z,42.805,6.029,13.3014,4.60074,2470.624,2022-3-19T10:57:27Z
2022-03-19T08:58:54Z,42.805,6.029,13.3015,4.60074,2470.624,2022-3-19T11:00:30Z
2022-03-19T09:01:57Z,42.805,6.029,13.3029,4.60079,2470.614,2022-3-19T11:03:33Z
2022-03-19T09:05:00Z,42.805,6.029,13.3024,4.60084,2470.637,2022-3-19T11:06:36Z
2022-03-19T09:08:03Z,42.805,6.029,13.3016,4.60088,2470.614,2022-3-19T11:09:39Z
2022-03-19T09:11:06Z,42.805,6.029,13.3011,4.60075,2470.614,2022-3-19T11:12:42Z
2022-03-19T09:14:09Z,42.805,6.029,13.3018,4.60069,2470.624,2022-3-19T11:15:45Z
2022-03-19T09:17:12Z,42.805,6.029,13.3015,4.60070,2470.6,2022-3-19T11:18:48Z
2022-03-19T09:20:15Z,42.805,6.029,13.3014,4.60074,2470.6,2022-3-19T11:21:52Z
2022-03-19T09:23:19Z,42.805,6.029,13.3019,4.60098,2470.637,2022-3-19T11:24:55Z
2022-03-19T09:26:22Z,42.805,6.029,13.3027,4.60093,2470.637,2022-3-19T11:27:58Z
2022-03-19T09:29:25Z,42.805,6.029,13.3020,4.60069,2470.624,2022-3-19T11:31:01Z
2022-03-19T09:32:28Z,42.805,6.029,13.3014,4.60066,2470.591,2022-3-19T11:34:04Z
2022-03-19T09:35:31Z,42.805,6.029,13.3019,4.60081,2470.577,2022-3-19T11:37:07Z
2022-03-19T09:38:34Z,42.805,6.029,13.3034,4.60092,2470.6,2022-3-19T11:40:10Z
2022-03-19T09:41:37Z,42.805,6.029,13.3025,4.60093,2470.614,2022-3-19T11:43:13Z
2022-03-19T09:44:40Z,42.805,6.029,13.3019,4.60097,2470.624,2022-3-19T11:46:17Z
2022-03-19T09:47:44Z,42.805,6.029,13.3010,4.60059,2470.577,2022-3-19T11:49:20Z
2022-03-19T09:50:47Z,42.805,6.029,13.3019,4.60097,2470.661,2022-3-19T11:52:23Z
2022-03-19T09:53:50Z,42.805,6.029,13.3014,4.60079,2470.6,2022-3-19T11:55:26Z
2022-03-19T09:56:53Z,42.805,6.029,13.3015,4.60069,2470.577,2022-3-19T11:58:29Z
2022-03-19T09:59:56Z,42.805,6.029,13.3010,4.60062,2470.6,2022-3-19T12:01:32Z
2022-03-19T10:02:59Z,42.805,6.029,13.3013,4.60058,2470.591,2022-3-19T12:04:35Z
2022-03-19T10:06:02Z,42.805,6.029,13.3017,4.60070,2470.614,2022-3-19T12:07:38Z
2022-03-19T10:09:05Z,42.805,6.029,13.3016,4.60088,2470.577,2022-3-19T12:10:42Z
2022-03-19T10:12:09Z,42.805,6.029,13.3026,4.60077,2470.577,2022-3-19T12:13:45Z
2022-03-19T10:15:12Z,42.805,6.029,13.3012,4.60060,2470.577,2022-3-19T12:16:48Z
2022-03-19T10:18:15Z,42.805,6.029,13.3010,4.60057,2470.577,2022-3-19T12:19:51Z
2022-03-19T10:21:18Z,42.805,6.029,13.3019,4.60077,2470.591,2022-3-19T12:22:54Z
2022-03-19T10:24:21Z,42.805,6.029,13.3008,4.60061,2470.591,2022-3-19T12:25:57Z
2022-03-19T10:27:24Z,42.805,6.029,13.3016,4.60064,2470.591,2022-3-19T12:29:00Z
2022-03-19T10:30:27Z,42.805,6.029,13.3014,4.60058,2470.6,2022-3-19T12:32:04Z
2022-03-19T10:33:30Z,42.805,6.029,13.3015,4.60059,2470.577,2022-3-19T12:35:07Z
2022-03-19T10:36:34Z,42.805,6.029,13.3014,4.60056,2470.567,2022-3-19T12:38:10Z
2022-03-19T10:39:37Z,42.805,6.029,13.3019,4.60061,2470.553,2022-3-19T12:41:13Z
2022-03-19T10:42:40Z,42.805,6.029,13.3021,4.60084,2470.553,2022-3-19T12:44:16Z
2022-03-19T10:45:43Z,42.805,6.029,13.3014,4.60064,2470.567,2022-3-19T12:47:19Z
2022-03-19T10:48:46Z,42.805,6.029,13.3011,4.60060,2470.544,2022-3-19T12:50:22Z
2022-03-19T10:51:49Z,42.805,6.029,13.3017,4.60059,2470.577,2022-3-19T12:53:25Z
2022-03-19T10:54:52Z,42.805,6.029,13.3021,4.60079,2470.553,2022-3-19T12:56:29Z
2022-03-19T10:57:55Z,42.805,6.029,13.3019,4.60059,2470.591,2022-3-19T12:59:32Z
2022-03-19T11:00:59Z,42.805,6.029,13.3020,4.60056,2470.553,2022-3-19T13:02:35Z
2022-03-19T11:04:02Z,42.805,6.029,13.3012,4.60067,2470.553,2022-3-19T13:05:38Z
2022-03-19T11:07:05Z,42.805,6.029,13.3019,4.60069,2470.53,2022-3-19T13:08:41Z
2022-03-19T11:10:08Z,42.805,6.029,13.3018,4.60063,2470.544,2022-3-19T13:11:44Z
2022-03-19T11:13:11Z,42.805,6.029,13.3016,4.60068,2470.507,2022-3-19T13:14:47Z
2022-03-19T11:16:14Z,42.805,6.029,13.3015,4.60064,2470.567,2022-3-19T13:17:50Z
2022-03-19T11:19:17Z,42.805,6.029,13.3015,4.60091,2470.567,2022-3-19T13:20:54Z
2022-03-19T11:22:20Z,42.805,6.029,13.3014,4.60079,2470.53,2022-3-19T13:23:57Z
2022-03-19T11:25:24Z,42.805,6.029,13.3014,4.60056,2470.52,2022-3-19T13:27:00Z
2022-03-19T11:28:27Z,42.805,6.029,13.3021,4.60071,2470.534,2022-3-19T13:30:03Z
2022-03-19T11:31:30Z,42.805,6.029,13.3025,4.60072,2470.53,2022-3-19T13:33:06Z
2022-03-19T11:34:33Z,42.805,6.029,13.3026,4.60082,2470.497,2022-3-19T13:36:09Z
2022-03-19T11:37:36Z,42.805,6.029,13.3022,4.60085,2470.52,2022-3-19T13:39:12Z
2022-03-19T11:40:39Z,42.805,6.029,13.3025,4.60069,2470.53,2022-3-19T13:42:15Z
2022-03-19T11:43:42Z,42.805,6.029,13.3014,4.60084,2470.507,2022-3-19T13:45:18Z
2022-03-19T11:46:45Z,42.805,6.029,13.3013,4.60062,2470.497,2022-3-19T13:48:22Z
2022-03-19T11:49:49Z,42.805,6.029,13.3021,4.60087,2470.497,2022-3-19T13:51:25Z
2022-03-19T11:52:52Z,42.805,6.029,13.3019,4.60097,2470.507,2022-3-19T13:54:28Z
2022-03-19T11:55:55Z,42.805,6.029,13.3014,4.60059,2470.507,2022-3-19T13:57:31Z
2022-03-19T11:58:58Z,42.805,6.029,13.3025,4.60086,2470.53,2022-3-19T14:00:34Z
2022-03-19T12:02:01Z,42.805,6.029,13.3030,4.60085,2470.507,2022-3-19T14:03:37Z
2022-03-19T12:05:04Z,42.805,6.029,13.3029,4.60085,2470.53,2022-3-19T14:06:40Z
2022-03-19T12:08:07Z,42.805,6.029,13.3023,4.60084,2470.497,2022-3-19T14:09:43Z
2022-03-19T12:11:10Z,42.805,6.029,13.3027,4.60092,2470.497,2022-3-19T14:12:47Z
2022-03-19T12:14:14Z,42.805,6.029,13.3024,4.60092,2470.544,2022-3-19T14:15:50Z
2022-03-19T12:17:17Z,42.805,6.029,13.3040,4.60086,2470.483,2022-3-19T14:18:53Z
2022-03-19T12:20:20Z,42.805,6.029,13.3026,4.60072,2470.483,2022-3-19T14:21:56Z
2022-03-19T12:23:23Z,42.805,6.029,13.3027,4.60082,2470.497,2022-3-19T14:24:59Z
2022-03-19T12:26:26Z,42.805,6.029,13.3019,4.60061,2470.483,2022-3-19T14:28:02Z
2022-03-19T12:29:29Z,42.805,6.029,13.3013,4.60054,2470.507,2022-3-19T14:31:05Z
2022-03-19T12:32:32Z,42.805,6.029,13.3020,4.60074,2470.507,2022-3-19T14:34:09Z
2022-03-19T12:35:35Z,42.805,6.029,13.3038,4.60097,2470.474,2022-3-19T14:37:12Z
2022-03-19T12:38:39Z,42.805,6.029,13.3026,4.60087,2470.497,2022-3-19T14:40:15Z
2022-03-19T12:41:42Z,42.805,6.029,13.3033,4.60092,2470.483,2022-3-19T14:43:18Z
2022-03-19T12:44:45Z,42.805,6.029,13.3022,4.60080,2470.483,2022-3-19T14:46:21Z
2022-03-19T12:47:48Z,42.805,6.029,13.3031,4.60082,2470.474,2022-3-19T14:49:24Z
2022-03-19T12:50:51Z,42.805,6.029,13.3016,4.60084,2470.46,2022-3-19T14:52:27Z
2022-03-19T12:53:54Z,42.805,6.029,13.3019,4.60079,2470.483,2022-3-19T14:55:30Z
2022-03-19T12:56:57Z,42.805,6.029,13.3041,4.60097,2470.483,2022-3-19T14:58:33Z
2022-03-19T13:00:00Z,42.805,6.029,13.3037,4.60103,2470.52,2022-3-19T15:01:37Z
2022-03-19T13:03:04Z,42.805,6.029,13.3031,4.60105,2470.46,2022-3-19T15:04:40Z
2022-03-19T13:06:07Z,42.805,6.029,13.3053,4.60107,2470.437,2022-3-19T15:07:43Z
2022-03-19T13:09:10Z,42.805,6.029,13.3031,4.60108,2470.483,2022-3-19T15:10:46Z
2022-03-19T13:12:13Z,42.805,6.029,13.3038,4.60102,2470.483,2022-3-19T15:13:49Z
2022-03-19T13:15:16Z,42.805,6.029,13.3027,4.60116,2470.46,2022-3-19T15:16:52Z
2022-03-19T13:18:19Z,42.805,6.029,13.3033,4.60119,2470.45,2022-3-19T15:19:55Z
2022-03-19T13:21:22Z,42.805,6.029,13.3020,4.60096,2470.413,2022-3-19T15:22:59Z
2022-03-19T13:24:25Z,42.805,6.029,13.3031,4.60117,2470.45,2022-3-19T15:26:02Z
2022-03-19T13:27:29Z,42.805,6.029,13.3041,4.60094,2470.45,2022-3-19T15:29:05Z
2022-03-19T13:30:32Z,42.805,6.029,13.3034,4.60080,2470.46,2022-3-19T15:32:08Z
2022-03-19T13:33:35Z,42.805,6.029,13.3029,4.60086,2470.474,2022-3-19T15:35:11Z
2022-03-19T13:36:38Z,42.805,6.029,13.3039,4.60089,2470.45,2022-3-19T15:38:14Z
2022-03-19T13:39:41Z,42.805,6.029,13.3050,4.60093,2470.437,2022-3-19T15:41:17Z
2022-03-19T13:42:44Z,42.805,6.029,13.3047,4.60111,2470.46,2022-3-19T15:44:20Z
2022-03-19T13:45:47Z,42.805,6.029,13.3017,4.60097,2470.45,2022-3-19T15:47:23Z
2022-03-19T13:48:50Z,42.805,6.029,13.3046,4.60107,2470.437,2022-3-19T15:50:27Z
2022-03-19T13:51:54Z,42.805,6.029,13.3032,4.60127,2470.46,2022-3-19T15:53:30Z
2022-03-19T13:54:57Z,42.805,6.029,13.3043,4.60112,2470.437,2022-3-19T15:56:33Z
2022-03-19T13:58:00Z,42.805,6.029,13.3048,4.60074,2470.437,2022-3-19T15:59:36Z
2022-03-19T14:01:03Z,42.805,6.029,13.3029,4.60117,2470.45,2022-3-19T16:02:39Z
2022-03-19T14:04:06Z,42.805,6.029,13.3034,4.60132,2470.45,2022-3-19T16:05:42Z
2022-03-19T14:07:09Z,42.805,6.029,13.3062,4.60094,2470.413,2022-3-19T16:08:45Z
2022-03-19T14:10:12Z,42.805,6.029,13.3051,4.60084,2470.404,2022-3-19T16:11:49Z
2022-03-19T14:13:15Z,42.805,6.029,13.3039,4.60097,2470.413,2022-3-19T16:14:52Z
2022-03-19T14:16:19Z,42.805,6.029,13.3034,4.60126,2470.413,2022-3-19T16:17:55Z
2022-03-19T14:19:22Z,42.805,6.029,13.3051,4.60122,2470.404,2022-3-19T16:20:58Z
2022-03-19T14:22:25Z,42.805,6.029,13.3029,4.60154,2470.413,2022-3-19T16:24:01Z
2022-03-19T14:25:28Z,42.805,6.029,13.3056,4.60113,2470.45,2022-3-19T16:27:04Z
2022-03-19T14:28:31Z,42.805,6.029,13.3046,4.60067,2470.437,2022-3-19T16:30:07Z
2022-03-19T14:31:34Z,42.805,6.029,13.3041,4.60091,2470.45,2022-3-19T16:33:10Z
2022-03-19T14:34:37Z,42.805,6.029,13.3063,4.60111,2470.45,2022-3-19T16:36:14Z
2022-03-19T14:37:40Z,42.805,6.029,13.3029,4.60086,2470.39,2022-3-19T16:39:17Z
2022-03-19T14:40:44Z,42.805,6.029,13.3041,4.60076,2470.427,2022-3-19T16:42:20Z
2022-03-19T14:43:47Z,42.805,6.029,13.3042,4.60106,2470.427,2022-3-19T16:45:23Z
2022-03-19T14:46:50Z,42.805,6.029,13.3043,4.60084,2470.39,2022-3-19T16:48:26Z
2022-03-19T14:49:53Z,42.805,6.029,13.3035,4.60094,2470.404,2022-3-19T16:51:29Z
2022-03-19T14:52:56Z,42.805,6.029,13.3023,4.60074,2470.404,2022-3-19T16:54:32Z
2022-03-19T14:55:59Z,42.805,6.029,13.3037,4.60064,2470.427,2022-3-19T16:57:35Z
2022-03-19T14:59:02Z,42.805,6.029,13.3030,4.60075,2470.45,2022-3-19T17:00:39Z
2022-03-19T15:02:05Z,42.805,6.029,13.3030,4.60072,2470.404,2022-3-19T17:03:42Z
2022-03-19T15:05:09Z,42.805,6.029,13.3034,4.60073,2470.413,2022-3-19T17:06:45Z
2022-03-19T15:08:12Z,42.805,6.029,13.3045,4.60068,2470.39,2022-3-19T17:09:48Z
2022-03-19T15:11:15Z,42.805,6.029,13.3054,4.60097,2470.427,2022-3-19T17:12:51Z
2022-03-19T15:14:18Z,42.805,6.029,13.3031,4.60092,2470.404,2022-3-19T17:15:54Z